GW0787 Weather Reports


Display with metric or nautical units.
time (UTC)temp
F
wind
direction
speed
MPH
gust
MPH
rain 1hr
in
rain 24hr
in
rain mn
in
humidity
%
barometer
mb
20260904183039 59 140 0.0 3.0 0.01 0.60 0.04 75 1014.2
20260904181533 58 125 0.0 3.0 0.00 0.59 0.03 87 1014.3
20260904181503 58 125 1.0 3.0 0.00 0.59 0.03 88 1014.3
20260904180024 56 114 0.0 2.0 0.00 0.59 0.03 89 1014.3
20260904174545 54 106 1.0 2.0 0.00 0.59 0.03 89 1014.3
20260904173016 53 98 1.0 2.0 0.00 0.59 0.03 90 1014.5
20260904171516 52 75 0.0 2.0 0.00 0.59 0.03 91 1014.5
20260904170011 51 66 0.0 2.0 0.00 0.59 0.03 91 1014.6
20260904164506 49 60 0.0 2.0 0.00 0.59 0.03 91 1014.7
20260904163108 48 60 0.0 2.0 0.00 0.59 0.03 91 1014.8
20260904161559 46 38 0.0 1.0 0.00 0.59 0.03 90 1014.8
20260904160057 46 35 0.0 1.0 0.00 0.59 0.03 90 1014.8
20260904154553 45 35 0.0 1.0 0.00 0.59 0.03 91 1014.8
20260904153052 44 35 0.0 0.0 0.00 0.59 0.03 90 1014.7
20260904151549 44 35 0.0 0.0 0.00 0.59 0.03 91 1014.6
20260904150051 44 35 0.0 0.0 0.00 0.59 0.03 91 1014.5
20260904144547 44 35 0.0 2.0 0.00 0.59 0.03 91 1014.4
20260904143046 44 35 0.0 3.0 0.00 0.59 0.03 91 1014.2
20260904141542 44 35 0.0 0.0 0.00 0.59 0.03 91 1014.1
20260904140043 44 35 0.0 0.0 0.00 0.59 0.03 91 1013.9
20260904134546 44 35 0.0 0.0 0.00 0.59 0.03 91 1013.7
20260904133035 45 35 0.0 0.0 0.00 0.59 0.03 90 1013.5
20260904131534 45 35 0.0 0.0 0.00 0.59 0.03 90 1013.3
20260904130032 44 35 0.0 1.0 0.00 0.59 0.03 90 1013.2
20260904124534 45 35 0.0 0.0 0.00 0.59 0.03 91 1013.0
20260904123028 45 35 0.0 0.0 0.00 0.59 0.03 91 1012.8
20260904121525 45 35 0.0 0.0 0.00 0.59 0.03 91 1012.7
20260904120026 46 35 0.0 0.0 0.00 0.59 0.03 91 1012.5
20260904114523 46 24 0.0 1.0 0.00 0.59 0.03 90 1012.4
20260904113021 46 166 0.0 3.0 0.00 0.59 0.03 90 1012.2
20260904111519 46 232 0.0 2.0 0.00 0.59 0.03 90 1012.0
20260904110034 46 232 2.0 3.0 0.01 0.59 0.03 90 1012.2
20260904104518 46 311 0.0 0.0 0.01 0.59 0.03 90 1012.2
20260904103017 46 359 0.0 0.0 0.01 0.59 0.03 90 1012.0
20260904101516 46 170 2.0 4.0 0.01 0.59 0.03 90 1011.8
20260904100012 45 181 0.0 0.0 0.00 0.57 0.02 90 1011.9
20260904094511 46 180 0.0 1.0 0.01 0.57 0.02 90 1011.4
20260904093009 46 180 0.0 2.0 0.02 0.57 0.02 90 1011.4
20260904091513 46 180 0.0 0.0 0.02 0.57 0.02 90 1011.4
20260904090007 45 180 0.0 3.0 0.02 0.57 0.02 90 1011.6
20260904084506 45 179 0.0 2.0 0.01 0.56 0.01 90 1011.6
20260904083003 45 177 0.0 0.0 0.00 0.56 0.00 91 1011.8
20260904081504 46 177 0.0 0.0 0.00 0.56 0.00 91 1011.6
20260904074558 46 177 0.0 1.0 0.00 0.56 0.00 90 1011.6
20260904074509 46 177 0.0 1.0 0.00 0.56 0.00 90 1011.6
20260904073057 46 177 0.0 0.0 0.00 0.56 0.00 91 1011.6
20260904071556 46 177 0.0 0.0 0.00 0.56 0.00 90 1011.7
20260904070056 46 177 0.0 0.0 0.00 0.56 0.00 90 1011.6
20260904064553 46 177 0.0 0.0 0.00 0.59 0.56 91 1011.6
20260904063054 46 177 0.0 0.0 0.00 0.59 0.56 91 1011.6
20260904061554 46 177 0.0 0.0 0.00 0.59 0.56 91 1011.7
20260904060051 46 177 0.0 1.0 0.00 0.59 0.56 90 1011.5
20260904054553 47 177 0.0 2.0 0.00 0.59 0.56 90 1011.4
20260904053047 47 121 0.0 1.0 0.00 0.59 0.56 91 1011.5
20260904051551 47 121 0.0 0.0 0.00 0.59 0.56 90 1011.5
20260904050046 47 122 0.0 0.0 0.00 0.59 0.56 90 1011.4
20260904044546 48 121 0.0 0.0 0.00 0.59 0.56 90 1011.3
20260904043046 48 121 0.0 0.0 0.00 0.59 0.56 90 1011.3
20260904041552 48 121 0.0 0.0 0.00 0.59 0.56 90 1011.4
20260904040043 49 121 0.0 0.0 0.00 0.59 0.56 90 1011.3
20260904034551 49 121 0.0 0.0 0.00 0.59 0.56 90 1011.3
20260904033041 50 121 0.0 0.0 0.00 0.59 0.56 90 1011.2
20260904031544 50 121 0.0 1.0 0.00 0.59 0.56 90 1011.0
20260904030038 50 122 0.0 1.0 0.00 0.59 0.56 90 1010.9
20260904024538 50 121 0.0 1.0 0.01 0.60 0.56 90 1010.7
20260904023036 51 122 0.0 3.0 0.01 0.60 0.56 90 1010.7
20260904021537 51 141 0.0 3.0 0.01 0.60 0.56 90 1010.9
20260904020035 51 164 1.0 5.0 0.01 0.60 0.56 90 1010.8
20260904014534 51 191 0.0 2.0 0.00 0.60 0.56 90 1010.8
20260904013031 51 191 0.0 0.0 0.05 0.60 0.56 90 1010.5
20260904011555 50 191 0.0 2.0 0.16 0.60 0.56 90 1010.1
20260904010029 50 188 1.0 4.0 0.17 0.60 0.56 89 1009.9
20260904004528 51 156 0.0 3.0 0.20 0.60 0.56 88 1009.7
20260904003027 52 184 0.0 5.0 0.17 0.55 0.51 86 1010.0
20260904001526 53 216 0.0 6.0 0.17 0.44 0.40 86 1009.8
20260904000037 54 158 0.0 5.0 0.38 0.43 0.39 86 1009.5
20260903234537 54 217 3.0 5.0 0.35 0.40 0.36 84 1009.0
20260903233025 56 163 0.0 5.0 0.33 0.38 0.34 84 1008.9
20260903231525 60 148 0.0 2.0 0.21 0.26 0.22 72 1009.1
20260903230036 63 108 6.0 10.0 0.00 0.05 0.01 50 1008.8
20260903224523 65 31 3.0 8.0 0.00 0.05 0.01 47 1008.5
20260903223021 65 38 3.0 11.0 0.00 0.05 0.01 48 1008.6
20260903221521 69 108 1.0 9.0 0.00 0.05 0.01 40 1008.8
20260903220020 69 268 4.0 10.0 0.00 0.05 0.01 39 1008.7
20260903214516 67 224 5.0 13.0 0.00 0.05 0.01 43 1008.5
20260903213017 66 221 4.0 8.0 0.00 0.05 0.01 45 1008.6
20260903211518 65 215 1.0 4.0 0.00 0.05 0.01 49 1008.7
20260903210012 64 217 2.0 6.0 0.00 0.05 0.01 53 1008.6
20260903204515 66 253 4.0 7.0 0.00 0.05 0.01 47 1008.8
20260903203025 65 196 1.0 4.0 0.00 0.05 0.01 46 1008.8
20260903201510 64 176 1.0 4.0 0.00 0.05 0.01 47 1008.9
20260903200011 66 216 0.0 7.0 0.00 0.05 0.01 46 1009.0
20260903194505 64 232 2.0 7.0 0.00 0.05 0.01 49 1009.1
20260903193001 63 303 2.0 4.0 0.00 0.05 0.01 48 1009.4
20260903191604 63 179 1.0 3.0 0.00 0.05 0.01 56 1009.5
20260903190053 61 220 2.0 5.0 0.00 0.05 0.01 57 1009.5
20260903184550 59 168 0.0 1.0 0.00 0.05 0.01 70 1009.6